This is the latest recevied weather packets stored in our database for station/object DB0SMU-12. If no packets are shown the sender has not sent any weather packets the latest 10 day(s).
| Time | Temp. | Humidity | Pressure | Rain* | Wind** | Luminosity | Snow |
|---|---|---|---|---|---|---|---|
| 1778230609 | 13.89° C | 63% | 1018.4 hPa | 0 mm | - | - | - |
| 1778230428 | 13.89° C | 62% | 1018.3 hPa | 0 mm | - | - | - |
| 1778230247 | 13.89° C | 61% | 1018.4 hPa | 0 mm | - | - | - |
| 1778230066 | 13.89° C | 64% | 1018.3 hPa | 0 mm | - | - | - |
| 1778229886 | 13.89° C | 63% | 1018.3 hPa | 0 mm | - | - | - |
| 1778229705 | 14.44° C | 61% | 1018.4 hPa | 0 mm | - | - | - |
| 1778229524 | 14.44° C | 62% | 1018.3 hPa | 0 mm | - | - | - |
| 1778229343 | 13.89° C | 63% | 1018.4 hPa | 0 mm | - | - | - |
| 1778229160 | 13.89° C | 66% | 1018.4 hPa | 0 mm | - | - | - |
| 1778228979 | 13.33° C | 64% | 1018.3 hPa | 0 mm | - | - | - |
| 1778228798 | 13.89° C | 63% | 1018.3 hPa | 0 mm | - | - | - |
| 1778228614 | 13.89° C | 65% | 1018.3 hPa | 0 mm | - | - | - |
| 1778228252 | 13.33° C | 65% | 1018.4 hPa | 0 mm | - | - | - |
| 1778228071 | 12.78° C | 67% | 1018.4 hPa | 0 mm | - | - | - |
| 1778227890 | 12.78° C | 67% | 1018.3 hPa | 0 mm | - | - | - |
| 1778227709 | 13.33° C | 65% | 1018.4 hPa | 0 mm | - | - | - |
| 1778227528 | 13.33° C | 66% | 1018.5 hPa | 0 mm | - | - | - |
| 1778227348 | 13.33° C | 66% | 1018.5 hPa | 0 mm | - | - | - |
| 1778227167 | 13.33° C | 67% | 1018.5 hPa | 0 mm | - | - | - |
| 1778226986 | 13.33° C | 65% | 1018.4 hPa | 0 mm | - | - | - |
| 1778226805 | 13.33° C | 68% | 1018.5 hPa | 0 mm | - | - | - |
| 1778226624 | 12.78° C | 68% | 1018.4 hPa | 0 mm | - | - | - |
| 1778226443 | 12.78° C | 69% | 1018.5 hPa | 0 mm | - | - | - |
| 1778226262 | 12.78° C | 69% | 1018.4 hPa | 0 mm | - | - | - |
| 1778226081 | 12.22° C | 70% | 1018.4 hPa | 0 mm | - | - | - |
* Rain latest hour (hover to see other rain measurements)
** Current wind speed in m/s (hover to see current wind gust speed)